Regional Weather Roundup
Issued by NWS

Home | Current Version | Previous Version | Text Only | Print | Product List | Glossary On
Versions: 1 2 3 4 5 6 7 8 9 10 11 12 13 14 15 16 17 18 19 20 21 22 23 24 25 26 27 28 29 30 31 32 33 34 35 36 37 38 39 40 41 42 43 44 45 46 47 48 49 50
000
ASUS43 KDTX 281310
RWRMI
MICHIGAN HOURLY REGIONAL WEATHER ROUNDUP
NATIONAL WEATHER SERVICE DETROIT/PONTIAC MI
800 AM EST SAT FEB 28 2015

NOTE: "FAIR" INDICATES FEW OR NO CLOUDS BELOW 12,000 FEET WITH NO
SIGNIFICANT WEATHER AND/OR OBSTRUCTION TO VISIBILITY.

MIZ047>049-052>055-059>063-066>070-074>076-081>083-281400-
SOUTHEAST LOWER MICHIGAN

CITY           SKY/WX    TMP DP  RH WIND       PRES   REMARKS
ADRIAN         PTCLDY    -9 -15  75 CALM      30.73R
ALMA           PTCLDY     1  -2  88 S6        30.69R WCI -11
ANN ARBOR      PTCLDY   -14 -18  82 CALM      30.72R
BAD AXE        CLEAR      3  -2  79 SW6       30.69R WCI  -8
CARO           CLEAR     -1  -6  80 CALM      30.69R
DETROIT CITY   PTCLDY     2  -3  80 CALM      30.75R
DETROIT        PTCLDY     1  -5  75 S5        30.75R WCI  -9
FLINT          CLEAR      4  -4  69 SW5       30.71R WCI  -5
GROSSE ILE     PTCLDY    -2  -8  78 CALM      30.74R
HILLSDALE      PTCLDY    -5 -10  79 CALM      30.67R
HOWELL         PTCLDY    -1  -6  81 S3        30.69R

CITY           SKY/WX    TMP DP  RH WIND       PRES   REMARKS
JACKSON        PTCLDY    -6 -11  79 CALM      30.69R
LAMBERTVILLE   PTCLDY    -2  -8  78 CALM      30.75R
LANSING        PTCLDY     1  -5  75 S5        30.71R WCI  -9
LAPEER         FAIR     -11 -16  80 CALM      30.70R
MASON          PTCLDY    -6 -10  82 CALM      30.70R
MT. CLEMENS    PTCLDY    -4  -9  80 CALM      30.72R
PONTIAC        PTCLDY    -3  -9  75 CALM      30.69R
PORT HOPE        N/A      6  -2  69 SW7       30.67R WCI  -6
PORT HURON     MOCLDY   -13 -17  84 CALM      30.74R
TRI CITIES     PTCLDY     4  -2  76 S7        30.70R WCI  -8
TROY           CLEAR      5  -1  75 CALM      30.75R
SAGINAW HB     CLEAR      5   0  78 SW7       30.70R WCI  -7
$$
MIZ043>046-050>051-056>058-064>065-071>073-077>080-281400-
SOUTHWEST LOWER MICHIGAN

CITY           SKY/WX    TMP DP  RH WIND       PRES   REMARKS
BATTLE CREEK   MOCLDY    -7 -12  79 CALM      30.69R
BENTON HARBOR  PTCLDY    -8 -10  91 CALM      30.72R
BIG RAPIDS     PTCLDY    -8 -12  83 CALM      30.62S FOG
COLDWATER      MOCLDY   -13 -19  75 CALM      30.69S
FREMONT        PTSUNNY    2  -3  83 CALM      30.65S
HOLLAND        CLEAR     -1  -5  82 SE3       30.70R
GRAND RAPIDS   PTCLDY    -1  -6  79 S8        30.69R WCI -15
IONIA          FAIR      -2  -7  78 S6        30.68R WCI -14
KALAMAZOO      MOCLDY    -3  -7  82 S5        30.70R WCI -13
LUDINGTON      PTCLDY     4  -3  75 CALM      30.65R
MARSHALL       MOCLDY   -14 -19  80 CALM      30.69R
MOUNT PLEASANT FLURRIES   7   2  82 S3        30.66R
MUSKEGON       PTCLDY    10   4  76 SW6       30.68R WCI   0
SOUTH HAVEN    PTCLDY    -1  -6  81 S3        30.71R
$$
MIZ016>042-281400-
NORTHERN LOWER MICHIGAN

CITY           SKY/WX    TMP DP  RH WIND       PRES   REMARKS
ALPENA         CLEAR      5   0  79 SW6       30.61R WCI  -6
BEAVER ISLAND  CLEAR      8   2  78 SW5       30.57R WCI  -1
BELLAIRE       CLEAR     -8 -12  81 CALM      30.62S
CADILLAC       PTCLDY   -14 -20  72 CALM      30.56R
CHARLEVOIX     CLEAR      1  -3  83 CALM      30.62R
FRANKFORT      PTCLDY    15   7  71 W7        30.61S WCI   5
GAYLORD        PTCLDY    -3  -6  87 S3        30.53S
GRAYLING       PTCLDY   -17 -24  69 CALM      30.58S
HARBOR SPRINGS CLEAR      4  -1  77 CALM      30.57S
HOUGHTON LAKE  PTCLDY    -9 -14  78 CALM      30.60R
MANISTEE       MOCLDY    -9 -15  77 E3        30.63S
OSCODA         CLEAR      0  -4  85 SW10      30.65R WCI -17
PELLSTON       FAIR      -2  -6  83 VRB3      30.58R
ROGERS CITY    CLEAR      5   1  84 SW9       30.60R WCI  -9
TRAVERSE CITY  CLEAR     -5  -8  87 CALM      30.61R
$$
MIZ007>008-015-281400-
EASTERN UPPER MICHIGAN

CITY           SKY/WX    TMP DP  RH WIND       PRES   REMARKS
KINROSS        PTCLDY     1   0  92 SW5       30.54R WCI  -8
MACKINAC ISLAN PTCLDY     8   3  77 SW7       30.56R WCI  -3
NEWBERRY       PTCLDY    -1  -6  79 SW10      30.52R WCI -17
S. S. MARIE    PTCLDY    -7 -13  75 E3        30.55R
MUNISING         N/A     -1 -10  65 S10       30.53S WCI -17
$$
MIZ004>006-011>014-085-281400-
CENTRAL UPPER MICHIGAN

CITY           SKY/WX    TMP DP  RH WIND       PRES   REMARKS
MANISTIQUE     PTCLDY     4  -3  73 CALM      30.55S
ESCANABA       PTCLDY    -9 -11  92 CALM      30.58R
MENOMINEE      CLEAR      0  -6  78 SW8       30.59R WCI -15
SAWYER-GWINN   CLEAR    -11 -15  84 SW5       30.47S WCI -23
$$
MIZ001>003-009>011-084-281400-
WESTERN UPPER MICHIGAN

CITY           SKY/WX    TMP DP  RH WIND       PRES   REMARKS
IRON MOUNTAIN  PTCLDY    -2  -7  79 NW3       30.50R
HOUGHTON       CLEAR      5  -4  66 W8        30.43S WCI  -8
COPPER HARBOR    N/A     11  -1  58 VRB5      30.45S WCI   3
IRONWOOD       PTCLDY     0  -9  65 S5        30.44S WCI -10
$$

ABBREVIATIONS USED IN REMARKS
   TC - TEMPERATURE IN CELSIUS
  WCI - WIND CHILL INDEX
   HX - HEAT INDEX
  VSB - VISIBILITY



USA.gov is the U.S. government's official web portal to all federal, state and local government web resources and services.